N9GIA Weather Reports


Display with metric or nautical units.
time (UTC)temp
F
wind
direction
speed
MPH
gust
MPH
rain 1hr
in
rain 24hr
in
rain mn
in
humidity
%
barometer
mb
20260906011511 83 65 2.0 3.0 0.00 0.00 0.00 100 987.5
20260906010008 84 65 1.0 4.0 0.00 0.00 0.00 100 987.4
20260906004502 85 41 2.0 4.0 0.00 0.00 0.00 100 987.2
20260906003058 86 355 0.0 3.0 0.00 0.00 0.00 100 987.1
20260906001600 87 355 1.0 3.0 0.00 0.00 0.00 100 987.0
20260906000050 88 355 2.0 3.0 0.00 0.00 0.00 100 987.0
20260905234545 88 355 0.0 2.0 0.00 0.00 0.00 100 986.8
20260905233102 88 355 1.0 2.0 0.00 0.00 0.00 100 987.0
20260905231549 88 355 2.0 4.0 0.00 0.00 0.00 100 986.9
20260905230032 89 355 2.0 4.0 0.00 0.00 0.00 100 986.8
20260905224528 90 351 1.0 5.0 0.00 0.00 0.00 100 986.6
20260905223023 90 360 2.0 4.0 0.00 0.00 0.00 23 986.6
20260905221531 91 18 1.0 5.0 0.00 0.00 0.00 21 986.7
20260905220014 91 5 0.0 5.0 0.00 0.00 0.00 28 986.7
20260905214511 91 355 2.0 5.0 0.00 0.00 0.00 39 986.6
20260905213005 92 39 1.0 3.0 0.00 0.00 0.00 39 986.5
20260905211501 92 355 0.0 5.0 0.00 0.00 0.00 50 986.5
20260905210057 92 355 7.0 11.0 0.00 0.00 0.00 58 986.6
20260905204553 92 355 4.0 8.0 0.00 0.00 0.00 58 986.8
20260905203052 93 360 4.0 11.0 0.00 0.00 0.00 60 986.8
20260905201544 93 326 4.0 8.0 0.00 0.00 0.00 60 986.8
20260905200043 94 355 4.0 8.0 0.00 0.00 0.00 59 986.8
20260905194535 94 347 4.0 8.0 0.00 0.00 0.00 60 986.8
20260905193031 94 360 6.0 10.0 0.00 0.00 0.00 59 987.0
20260905191526 94 351 5.0 10.0 0.00 0.00 0.00 60 987.2
20260905190024 93 355 4.0 8.0 0.00 0.00 0.00 60 987.2
20260905184521 93 9 5.0 9.0 0.00 0.00 0.00 59 987.4
20260905183013 94 355 7.0 12.0 0.00 0.00 0.00 59 987.5
20260905181508 93 360 5.0 13.0 0.00 0.00 0.00 59 987.5
20260905180004 94 351 5.0 10.0 0.00 0.00 0.00 60 987.5
20260905174601 93 298 5.0 12.0 0.00 0.00 0.00 59 987.7
20260905173057 93 5 6.0 9.0 0.00 0.00 0.00 60 987.6
20260905171553 93 360 4.0 9.0 0.00 0.00 0.00 59 987.8
20260905170047 93 337 5.0 8.0 0.00 0.00 0.00 58 987.9
20260905164542 92 322 6.0 9.0 0.00 0.00 0.00 59 988.0
20260905163038 92 338 5.0 8.0 0.00 0.00 0.00 59 988.3
20260905161533 91 318 2.0 6.0 0.00 0.00 0.00 59 988.3
20260905160030 91 355 1.0 4.0 0.00 0.00 0.00 57 988.3
20260905154524 90 355 1.0 5.0 0.00 0.00 0.00 54 988.3
20260905153020 89 332 1.0 4.0 0.00 0.00 0.00 54 988.4
20260905151516 89 165 0.0 0.0 0.00 0.00 0.00 4 988.4
20260905150011 88 165 0.0 0.0 0.00 0.00 0.00 100 988.2
20260905144507 86 165 0.0 0.0 0.00 0.00 0.00 100 988.0
20260905143003 84 165 0.0 0.0 0.00 0.00 0.00 100 987.9
20260905141623 82 165 0.0 2.0 0.00 0.00 0.00 100 987.8
20260905140055 80 163 0.0 2.0 0.00 0.00 0.00 100 987.9
20260905134551 78 163 0.0 1.0 0.00 0.00 0.00 100 988.2
20260905133045 77 163 0.0 2.0 0.00 0.00 0.00 100 988.0
20260905131556 76 163 0.0 0.0 0.00 0.00 0.00 100 987.9
20260905130038 75 163 0.0 0.0 0.00 0.00 0.00 100 987.9
20260905124541 74 163 0.0 0.0 0.00 0.00 0.00 100 987.8
20260905123028 73 163 0.0 0.0 0.00 0.00 0.00 100 987.8
20260905121530 72 163 0.0 0.0 0.00 0.00 0.00 100 987.7
20260905120021 72 163 0.0 0.0 0.00 0.00 0.00 100 987.6
20260905114534 72 163 0.0 0.0 0.00 0.00 0.00 100 987.4
20260905113011 72 163 0.0 0.0 0.00 0.00 0.00 100 987.3
20260905111507 73 163 0.0 0.0 0.00 0.00 0.00 100 987.3
20260905110001 73 163 0.0 2.0 0.00 0.00 0.00 100 987.3
20260905104557 74 163 0.0 1.0 0.00 0.00 0.00 100 987.3
20260905103053 73 163 0.0 1.0 0.00 0.00 0.00 100 987.3
20260905101601 73 160 0.0 4.0 0.00 0.00 0.00 100 987.2
20260905100044 74 154 0.0 2.0 0.00 0.00 0.00 100 987.1
20260905094540 74 155 0.0 0.0 0.00 0.00 0.00 100 987.1
20260905093035 74 155 0.0 0.0 0.00 0.00 0.00 100 987.1
20260905091531 74 155 0.0 1.0 0.00 0.00 0.00 100 987.1
20260905090033 74 155 0.0 1.0 0.00 0.00 0.00 100 987.1
20260905084550 74 155 0.0 0.0 0.00 0.00 0.00 100 987.1
20260905083021 73 155 0.0 0.0 0.00 0.00 0.00 100 987.3
20260905081512 73 155 0.0 0.0 0.00 0.00 0.00 100 987.4
20260905080008 74 155 0.0 0.0 0.00 0.00 0.00 100 987.4
20260905074504 74 155 0.0 0.0 0.00 0.00 0.00 100 987.5
20260905073100 74 155 0.0 0.0 0.00 0.00 0.00 100 987.5
20260905071600 75 155 0.0 0.0 0.00 0.00 0.00 100 987.6
20260905070058 75 155 0.0 0.0 0.00 0.00 0.00 100 987.7
20260905064547 75 155 0.0 1.0 0.00 0.00 0.00 100 987.8
20260905063048 75 154 0.0 1.0 0.00 0.00 0.00 100 987.8
20260905061540 75 154 0.0 1.0 0.00 0.00 0.00 100 987.7
20260905060035 76 154 0.0 0.0 0.00 0.00 0.00 100 987.8
20260905054530 76 154 0.0 0.0 0.00 0.00 0.00 100 987.7
20260905053026 76 154 0.0 0.0 0.00 0.00 0.00 100 987.8
20260905051532 76 154 0.0 1.0 0.00 0.00 0.00 100 987.7
20260905050017 76 154 0.0 1.0 0.00 0.00 0.00 100 987.6
20260905044514 77 154 0.0 0.0 0.00 0.00 0.00 100 987.6
20260905043009 77 154 0.0 2.0 0.00 0.00 0.00 100 987.5
20260905041504 78 165 0.0 2.0 0.00 0.00 0.00 100 987.5
20260905040059 79 341 0.0 2.0 0.00 0.00 0.00 100 987.5
20260905034555 79 339 0.0 0.0 0.00 0.00 0.00 100 987.6
20260905033055 79 339 0.0 1.0 0.00 0.00 0.00 100 987.7
20260905031550 80 336 0.0 2.0 0.00 0.00 0.00 100 987.7
20260905030041 80 336 0.0 3.0 0.00 0.00 0.00 100 987.8
20260905024549 80 336 0.0 3.0 0.00 0.00 0.00 100 987.6
20260905023037 81 331 0.0 2.0 0.00 0.00 0.00 100 987.5
20260905021531 81 329 1.0 2.0 0.00 0.00 0.00 100 987.3
20260905020024 81 290 0.0 0.0 0.00 0.00 0.00 100 987.1
20260905014519 83 290 0.0 0.0 0.00 0.00 0.00 100 987.0
20260905013017 84 290 0.0 0.0 0.00 0.00 0.00 100 986.9